Waarnemingen

Advertentie
Mijn weer
Santander/Parayas, Spanje (8021): temperatuur & dauwpunt: 11.07.2019 12:00:00 - 17.07.2019 12:00:00 (CEST)Santander/Parayas, Spanje (8021): windsnelheid: 11.07.2019 12:00:00 - 17.07.2019 12:00:00 (CEST)Santander/Parayas, Spanje (8021): windrichting: 11.07.2019 12:00:00 - 17.07.2019 12:00:00 (CEST)Santander/Parayas, Spanje (8021): luchtdruk: 11.07.2019 12:00:00 - 17.07.2019 12:00:00 (CEST)Santander/Parayas, Spanje (8021): zicht: 11.07.2019 12:00:00 - 17.07.2019 12:00:00 (CEST)
Datum & Tijd tt [°C] td [°C] ff [km/u] ff [kn] dd ppp [hPa] vv [km]
17.07.2019 12:00:00 23,4 17,2 11 6 N 1018,4 -
17.07.2019 11:00:00 22,4 16,6 11 6 NW 1018,3 -
17.07.2019 10:00:00 23,0 17,6 5 3 WNW 1018,2 -
17.07.2019 09:00:00 21,3 18,3 8 4 ZW 1018,0 -
17.07.2019 08:00:00 19,0 17,7 8 4 ZZW 1017,8 18
17.07.2019 07:00:00 18,2 17,0 4 2 ZW 1017,7 -
17.07.2019 06:00:00 18,4 17,1 4 2 ZW 1017,6 -
17.07.2019 05:00:00 19,0 17,5 8 4 ZZW 1017,7 -
17.07.2019 04:00:00 19,1 17,8 8 4 ZZW 1017,8 -
17.07.2019 03:00:00 19,4 17,7 4 2 WZW 1018,0 -
17.07.2019 02:00:00 19,8 17,9 4 2 W 1018,1 -
17.07.2019 01:00:00 19,8 17,6 5 3 ZW 1018,5 -
17.07.2019 00:00:00 20,5 17,9 4 2 NNW 1018,3 -
16.07.2019 23:00:00 20,9 17,9 4 2 NW 1018,2 35
16.07.2019 22:00:00 21,6 17,6 5 3 NNW 1018,0 -
16.07.2019 21:00:00 22,2 17,7 9 5 N 1017,8 -
16.07.2019 20:00:00 23,1 17,1 9 5 N 1017,9 35
16.07.2019 19:00:00 23,3 17,3 13 7 ONO 1017,7 -
16.07.2019 18:00:00 23,9 17,5 15 8 ONO 1017,8 -
16.07.2019 17:00:00 24,7 18,0 16 9 ONO 1018,1 40
16.07.2019 16:00:00 24,6 17,1 18 10 ONO 1018,3 -
16.07.2019 15:00:00 24,7 17,4 15 8 NNO 1018,3 -
16.07.2019 14:00:00 24,6 17,7 16 9 ONO 1018,6 30
16.07.2019 13:00:00 24,2 17,1 15 8 ONO 1018,6 -
16.07.2019 12:00:00 23,9 16,9 13 7 ONO 1018,6 -
16.07.2019 11:00:00 23,5 16,9 8 4 O 1018,8 25
16.07.2019 10:00:00 22,7 16,8 4 2 OZO 1018,6 -
16.07.2019 09:00:00 19,8 16,1 4 2 Z 1018,8 -
16.07.2019 08:00:00 16,8 15,3 5 3 ZZW 1018,5 20
16.07.2019 07:00:00 15,0 14,0 2 1 Z 1018,4 -
16.07.2019 06:00:00 15,2 14,2 0 0 N 1018,3 -
16.07.2019 05:00:00 15,5 14,5 2 1 OZO 1018,4 -
16.07.2019 04:00:00 15,6 14,6 4 2 ZZW 1018,7 -
16.07.2019 03:00:00 16,4 15,3 4 2 ZZW 1018,9 -
16.07.2019 02:00:00 16,9 15,9 5 3 ZZW 1019,1 -
16.07.2019 01:00:00 17,2 15,8 0 0 N 1019,2 -
16.07.2019 00:00:00 18,3 15,9 2 1 OZO 1019,0 -
15.07.2019 23:00:00 20,8 17,1 9 5 ONO 1018,8 25
15.07.2019 22:00:00 21,6 17,6 13 7 ONO 1018,4 -
15.07.2019 21:00:00 22,6 17,4 16 9 NO 1018,2 -
15.07.2019 20:00:00 23,0 18,5 18 10 NO 1017,8 25
15.07.2019 19:00:00 23,9 18,9 21 11 NO 1017,6 -
15.07.2019 18:00:00 23,7 18,7 21 11 NO 1017,6 -
15.07.2019 17:00:00 25,2 18,5 21 11 NO 1017,5 25
15.07.2019 16:00:00 25,6 18,6 22 12 NO 1017,3 -
15.07.2019 15:00:00 26,1 19,3 22 12 NO 1017,2 -
15.07.2019 14:00:00 25,7 19,8 18 10 NO 1017,4 25
15.07.2019 13:00:00 25,5 18,9 18 10 ONO 1017,4 -
15.07.2019 12:00:00 25,2 17,5 8 4 ONO 1017,2 -
15.07.2019 11:00:00 24,4 15,9 8 4 ONO 1017,2 20
15.07.2019 10:00:00 22,5 18,1 5 3 NO 1017,2 -
15.07.2019 09:00:00 20,5 16,7 0 0 N 1017,0 -
15.07.2019 08:00:00 17,5 16,2 4 2 ZO 1016,9 15
15.07.2019 07:00:00 15,4 14,6 5 3 ZZO 1016,9 -
15.07.2019 06:00:00 16,6 15,8 4 2 ZZW 1016,5 -
15.07.2019 05:00:00 16,7 16,1 4 2 ZW 1016,6 -
15.07.2019 04:00:00 17,1 16,5 2 1 ZZW 1016,9 -
15.07.2019 03:00:00 17,9 17,4 0 0 N 1017,4 -
15.07.2019 02:00:00 18,4 17,9 0 0 N 1017,7 -
15.07.2019 01:00:00 18,3 17,5 5 3 ZZW 1017,8 -
15.07.2019 00:00:00 19,0 17,7 0 0 N 1017,8 -
14.07.2019 23:00:00 20,6 18,7 2 1 W 1017,6 20
14.07.2019 22:00:00 22,0 19,0 8 4 NNW 1017,0 -
14.07.2019 21:00:00 24,2 19,3 9 5 WNW 1016,8 -
14.07.2019 20:00:00 25,3 17,7 5 3 NO 1016,8 40
14.07.2019 19:00:00 25,5 19,2 5 3 NNO 1016,6 -
14.07.2019 18:00:00 26,0 16,8 11 6 N 1016,8 -
14.07.2019 17:00:00 26,2 14,5 13 7 NNW 1016,9 40
14.07.2019 16:00:00 26,3 16,8 15 8 NW 1016,8 -
14.07.2019 15:00:00 25,9 18,8 13 7 NW 1016,9 -
14.07.2019 14:00:00 25,3 19,4 16 9 WNW 1017,0 30
14.07.2019 13:00:00 25,5 19,4 16 9 WNW 1016,9 -
14.07.2019 12:00:00 25,3 18,8 8 4 NW 1016,7 -
14.07.2019 11:00:00 24,2 19,5 11 6 ZW 1016,8 25
14.07.2019 10:00:00 22,6 19,5 13 7 WZW 1016,8 -
14.07.2019 09:00:00 21,5 19,5 11 6 WZW 1016,6 -
14.07.2019 08:00:00 19,9 19,1 9 5 ZW 1016,7 9
14.07.2019 07:00:00 18,5 17,8 8 4 ZW 1016,1 -
14.07.2019 06:00:00 18,9 18,2 4 2 W 1015,9 -
14.07.2019 05:00:00 18,4 17,7 8 4 W 1016,4 -
14.07.2019 04:00:00 18,7 18,0 5 3 W 1017,0 -
14.07.2019 03:00:00 18,4 17,4 0 0 N 1016,6 -
14.07.2019 02:00:00 19,3 18,5 0 0 N 1017,3 -
14.07.2019 01:00:00 19,0 17,8 4 2 WZW 1019,0 -
14.07.2019 00:00:00 20,0 18,5 5 3 WNW 1018,8 -
13.07.2019 23:00:00 20,8 18,7 5 3 NW 1019,2 30
13.07.2019 22:00:00 21,3 18,9 13 7 NW 1019,0 -
13.07.2019 21:00:00 21,9 19,1 9 5 N 1017,6 -
13.07.2019 20:00:00 22,2 19,5 16 9 NO 1016,1 30
13.07.2019 19:00:00 22,7 19,9 22 12 NO 1015,0 -
13.07.2019 18:00:00 23,0 20,0 24 13 NO 1015,7 -
13.07.2019 17:00:00 23,1 20,1 24 13 NO 1016,4 30
13.07.2019 16:00:00 23,3 20,0 24 13 NO 1016,8 -
13.07.2019 15:00:00 23,3 20,0 22 12 NO 1017,4 -
13.07.2019 14:00:00 23,1 20,1 22 12 NO 1017,8 30
13.07.2019 13:00:00 23,7 19,4 24 13 NO 1018,1 -
13.07.2019 12:00:00 23,7 18,6 22 12 NO 1018,2 -
13.07.2019 11:00:00 23,2 18,7 18 10 NO 1018,3 30
13.07.2019 10:00:00 22,5 18,0 8 4 NO 1018,4 -
13.07.2019 09:00:00 20,3 16,7 8 4 NO 1018,3 -
13.07.2019 08:00:00 17,7 16,7 4 2 Z 1018,4 30
13.07.2019 07:00:00 15,8 14,8 2 1 Z 1018,8 -
13.07.2019 06:00:00 16,8 15,7 0 0 N 1019,0 -
13.07.2019 05:00:00 17,1 16,0 0 0 N 1019,4 -
13.07.2019 04:00:00 17,2 15,9 2 1 Z 1019,6 -
13.07.2019 03:00:00 17,6 16,3 0 0 N 1020,0 -
13.07.2019 02:00:00 17,6 16,2 5 3 ZZW 1020,4 -
13.07.2019 01:00:00 18,5 16,5 0 0 N 1020,7 -
13.07.2019 00:00:00 19,8 17,0 5 3 OZO 1020,6 -
12.07.2019 23:00:00 21,4 18,0 9 5 NO 1020,2 30
12.07.2019 22:00:00 22,2 17,5 13 7 NO 1019,4 -
12.07.2019 21:00:00 23,0 17,5 15 8 NO 1019,2 -
12.07.2019 20:00:00 23,5 16,7 16 9 NO 1018,9 40
12.07.2019 19:00:00 24,1 17,4 16 9 NO 1018,5 -
12.07.2019 18:00:00 24,9 18,7 16 9 NNO 1018,4 -
12.07.2019 17:00:00 25,0 17,3 22 12 NO 1018,4 40
12.07.2019 16:00:00 25,5 16,8 18 10 NO 1018,6 -
12.07.2019 15:00:00 25,1 18,0 16 9 NO 1018,7 -
12.07.2019 14:00:00 25,0 16,3 18 10 NO 1018,6 40
12.07.2019 13:00:00 24,5 17,5 16 9 NO 1018,9 -
12.07.2019 12:00:00 23,8 18,4 13 7 ONO 1019,0 -
12.07.2019 11:00:00 23,2 16,4 11 6 ONO 1019,0 40
12.07.2019 10:00:00 22,7 16,8 8 4 NO 1019,1 -
12.07.2019 09:00:00 20,6 16,8 4 2 Z 1018,8 -
12.07.2019 08:00:00 18,0 16,3 4 2 Z 1018,4 20
12.07.2019 07:00:00 15,1 14,3 4 2 ZZO 1018,0 -
12.07.2019 06:00:00 15,4 14,3 2 1 ZO 1017,5 -
12.07.2019 05:00:00 16,1 15,0 2 1 Z 1017,5 -
12.07.2019 04:00:00 15,9 14,6 4 2 Z 1017,6 -
12.07.2019 03:00:00 16,9 15,1 0 0 N 1018,0 -
12.07.2019 02:00:00 17,1 15,4 4 2 ZW 1018,4 -
12.07.2019 01:00:00 17,8 15,8 5 3 ZZW 1018,6 -
12.07.2019 00:00:00 19,1 16,9 8 4 O 1018,6 -
11.07.2019 23:00:00 21,3 17,9 9 5 ONO 1018,3 25
11.07.2019 22:00:00 21,8 16,3 8 4 O 1017,6 -
11.07.2019 21:00:00 23,3 17,2 9 5 ONO 1017,2 -
11.07.2019 20:00:00 23,8 16,0 13 7 ONO 1017,0 25
11.07.2019 19:00:00 24,6 16,8 15 8 ONO 1016,7 -
11.07.2019 18:00:00 25,1 14,5 15 8 ONO 1016,6 -
11.07.2019 17:00:00 25,1 15,6 15 8 ONO 1016,8 25
11.07.2019 16:00:00 25,5 13,1 16 9 ONO 1017,1 -
11.07.2019 15:00:00 25,5 14,1 18 10 ONO 1017,2 -
11.07.2019 14:00:00 25,4 17,2 9 5 N 1017,2 2,5
11.07.2019 13:00:00 24,5 18,7 11 6 N 1017,4 -
11.07.2019 12:00:00 24,3 18,9 8 4 N 1017,4 -

tt = temperatuur
td = dauwpunt
ff = windsnelheid
dd = windrichting
ppp = luchtdruk
vv = zicht

Weerstations in de omgeving